www.pogodaiklimat.ru

Погода и климат >> Архив погоды >> Россия >> Камчатский край >> Ключи


АРХИВ ПОГОДЫ в Ключах

Время (UTC), дата Ветер
(напр.,м/с)
 
Видим.   Явления Облачность Т
(С)
Тd
(С)
f
(%)
Тe
(С)
Тes
(С)
Комфортность P
(гПа)
Po
(гПа)
Тmin
(С)
Tmax
(С)
R
(мм)
R24
(мм)
S
(см)
21 19.03 З 1 2000 м слаб. снег 10/10 300 м
[Frnb Ns]
-17.3 -20.3 77 -20 -20 1007.7 1003.8 -19.1 0.9 111
00 20.03 З 2 500 м снег 10/10 200 м
[Frnb Ns]
-15.5 -18.7 76 -21 -21 1006.7 1002.8
03 20.03 штиль 0 500 м снег 10/10 200 м
[Frnb Ns]
-12.9 -15.9 78 -13 -13 1004.8 1001.0
06 20.03 З 4 500 м снег 10/10 200 м
[Frnb Ns]
-14.2 -17.2 78 -22 -22 1003.8 1000.0
09 20.03 З 8-12
{13}
2000 м слаб. снег {метель} 10/10 330 м
[Frnb Ns]
-15.0 -18.1 77 -26 -26 1002.8 998.9 -12.6 4
12 20.03 З 9-14
{16}
500 м снег {метель} 10/10 200 м
[Frnb Ns]
-14.7 -17.9 77 -26 -26 1002.3 998.5
15 20.03 З 8-12
{15}
500 м снег {метель} 10/10 200 м
[Frnb Ns]
-14.1 -17.1 78 -25 -25 1001.3 997.5
18 20.03 СЗ 5
{12}
500 м снег {метель} 10/10 200 м
[Frnb Ns]
-12.8 -15.5 80 -21 -21 1000.6 996.8
21 20.03 СЗ 5 50 м снег {метель} 10/10 200 м
[Frnb Ns]
-12.1 -15.0 79 -20 -20 999.5 995.7 -15.0 4 117
00 21.03 СЗ 3
{11}
500 м снег {метель} 10/10 200 м
[Frnb Ns]
-10.6 -13.3 80 -17 -17 998.9 995.2
03 21.03 СЗ 4 500 м снег {метель} 10/10 200 м
[Frnb Ns]
-8.9 -11.6 81 -16 -16 999.3 995.6
06 21.03 СЗ 5 500 м слаб. снег {метель} 10/10 210 м
[Frnb Ns]
-8.4 -11.2 80 -16 -16 1000.9 997.2
09 21.03 З 4 4000 м слаб. снег {метель} 9/0 500 м
[Ac As]
-8.7 -12.5 74 -15 -15 1003.7 1000.0 -8.3 3
12 21.03 З 5 4000 м слаб. снег {метель} 10/0 450 м
[]
-9.7 -13.1 76 -17 -17 1005.5 1001.8
15 21.03 З 3 1000 м снег {метель} 10/10 300 м
[Frnb Ns]
-8.9 -10.7 87 -15 -15 1007.4 1003.7
18 21.03 З 5 1000 м снег {метель} 10/10 300 м
[Frnb Ns]
-9.7 -13.1 76 -17 -17 1005.5 1001.8
21 21.03 З 3 10 км слаб. снег {метель} 10/4 600 м
[Sc As op]
-10.9 -13.2 83 -17 -17 1011.6 1007.8 -11.0 2 133
00 22.03 З 2 10 км слаб. снег {метель} 10/4 600 м
[Sc As op]
-8.8 -12.3 76 -13 -12 1012.2 1008.4
03 22.03 штиль 0 500 м ливневой снег 10/10 200 м
[Cb cap]
-5.8 -8.1 84 -7 -7 1011.2 1007.5
06 22.03 В 3 200 м ливневой снег 10/10 200 м
[Cb cap]
-6.9 -8.2 90 -13 -13 1009.3 1005.6
09 22.03 В 6-10
{10}
10 км позёмок {ливн. осадки} 9/8 600 м
[Cb cap Ac trans]
-7.7 -9.2 89 -16 -16 1008.8 1005.0 -4.8 5
12 22.03 В 5
{11}
4000 м слаб. ливневой снег {метель} 10/10 330 м
[Cb cap]
-6.5 -8.0 89 -14 -14 1008.0 1004.3
15 22.03 В 7-10
{11}
4000 м слаб. ливневой снег {метель} 10/10 330 м
[Cb cap]
-3.3 -5.1 87 -11 -11 1005.7 1002.1
18 22.03 В 6-10
{13}
10 км позёмок {ливн. осадки} 9/8 600 м
[Cb cap Ac trans]
-3.4 -6.1 82 -11 -11 1003.9 1000.2
21 22.03 В 7-10
{12}
200 м ливневой снег {метель} 10/10 200 м
[Cb cap]
-3.2 -4.2 93 -11 -11 1002.2 998.6 -7.7 0.6 138
00 23.03 В 8-11
{12}
200 м ливневой снег {метель} 10/10 200 м
[Cb cap]
-2.3 -3.2 94 -11 -11 1000.1 996.4
03 23.03 В 11-15
{16}
200 м ливневой снег {метель} 10/10 200 м
[Cb cap]
-1.4 -2.7 91 -10 -10 996.7 993.1
06 23.03 В 9-15
{19}
1000 м слаб. ливневой снег {метель} 10/10 270 м
[Cb cap]
-2.3 -4.0 88 -11 -11 995.0 991.4
09 23.03 В 6-10
{15}
10 км слаб. ливневой снег {метель} 10/8 660 м
[Cb cap Ac As]
-2.1 -7.6 66 -9 -9 994.4 990.8 -1.3 5
12 23.03 ЮВ 5
{10}
2000 м слаб. ливневой снег {метель} 10/10 420 м
[Cb cap]
-3.4 -4.7 91 -10 -10 993.4 989.7
15 23.03 ЮВ 5 2000 м слаб. ливневой снег {метель} 10/10 400 м
[Cb cap]
-3.5 -5.3 87 -10 -10 991.8 988.2
18 23.03 В 2 4000 м слаб. ливневой снег {метель} 10/10 500 м
[Cb cap]
-3.1 -6.7 76 -7 -7 991.2 987.6
21 23.03 З 3 50 км {ливн. осадки} 9/6 1000 м
[Sc diur, vesp Ac lent]
-4.1 -8.2 73 -9 -9 990.7 987.1 -4.7 0.6 143
00 24.03 З 4 20 км {ливн. осадки} 10/5 960 м
[Sc Ac As]
-3.0 -9.0 63 -9 -8 990.2 986.6
03 24.03 З 5
{10}
50 км позёмок 10/4 1000 м
[Sc Ac As]
-3.2 -9.6 61 -10 -9 989.9 986.2
06 24.03 З 5 50 км позёмок 10/3 1000 м
[Sc Ac As]
-3.5 -11.0 56 -10 -10 989.4 985.8
09 24.03 З 2 20 км {метель} 9/3 1000 м
[Sc Ac trans]
-6.9 -13.7 58 -11 -11 990.1 986.5 -1.1
12 24.03 З 1 20 км {метель} 9/4 1000 м
[Sc Ac trans]
-12.8 -15.9 78 -15 -15 989.9 986.1
15 24.03 З 4 20 км позёмок 9/4 1000 м
[Sc Ac trans]
-14.9 -17.7 79 -23 -23 989.6 985.8
18 24.03 З 5 20 км позёмок 9/4 1000 м
[Sc Ac trans]
-15.7 -19.0 76 -25 -25 988.9 985.1
21 24.03 З 3 50 км {метель} 9/3 1000 м
[Sc Ac trans Ci fib]
-15.1 -18.9 73 -22 -21 989.5 985.7 -16.8 140
00 25.03 З 3 50 км {метель} 9/3 1000 м
[Sc Ac trans Ci fib]
-11.1 -17.4 60 -17 -15 989.0 985.2
03 25.03 СЗ 4 50 км позёмок 8/3 1000 м
[Sc Ac trans Ci fib]
-7.1 -17.4 44 -13 -11 987.9 984.2
06 25.03 З 5 50 км позёмок 8/0
[Ac trans Ci fib]
-6.6 -17.1 43 -13 -13 987.8 984.1
09 25.03 ЮЗ 3 20 км {метель} 6/3 1000 м
[Sc Ac lent]
-9.3 -17.5 51 -15 -15 987.9 984.2 -6.5
12 25.03 З 1 20 км {метель} 4/1 1000 м
[Sc Ac lent]
-12.8 -18.3 63 -15 -15 987.8 984.1
15 25.03 З 6 20 км позёмок 4/1 1000 м
[Sc Ac lent]
-12.8 -18.1 64 -22 -22 986.0 982.3
18 25.03 СЗ 8-12
{13}
20 км позёмок 6/3 1000 м
[Sc Ac lent]
-9.8 -17.5 53 -19 -19 985.1 981.4
21 25.03 З 9-12
{14}
50 км позёмок 8/4 1000 м
[Sc Ac trans Ci]
-13.4 -18.5 65 -24 -24 983.6 979.9 -16.2 137
00 26.03 З 11-15
{15}
50 км позёмок 10/3 1000 м
[Sc Ac trans Ci sp]
-5.1 -13.7 51 -15 -15 982.6 979.0
03 26.03 З 10-15
{18}
50 км сильный позёмок 9/1 1000 м
[Sc Ac trans Ci fib]
-3.1 -12.5 48 -12 -11 982.3 978.7
06 26.03 З 11-16
{18}
50 км сильный позёмок 9/3 1000 м
[Sc Ac trans Ci fib]
-4.2 -12.8 51 -13 -13 982.5 978.9
09 26.03 З 8-13
{19}
20 км сильный позёмок 9/3 1000 м
[Sc Ac trans]
-4.6 -14.5 46 -13 -13 984.7 981.1 -2.6
12 26.03 З 10-15
{19}
20 км сильный позёмок 9/3 1000 м
[Sc Ac trans]
-5.3 -14.1 50 -14 -14 985.6 982.0
15 26.03 З 11-17
{18}
20 км сильный позёмок 9/3 1000 м
[Sc Ac trans]
-4.9 -13.7 50 -14 -14 985.9 982.3
18 26.03 З 12-18
{20}
20 км сильный позёмок 9/3 1000 м
[Sc Ac trans]
-4.6 -12.8 53 -14 -14 987.2 983.5

 

Местоположение метеостанции Ключи (Камчатский край, Россия): широта 56.32 долгота 160.80 высота над уровнем моря 29 м.

В архиве по умолчанию представлена погода в Ключах за последнюю неделю. Архивные данные за месяц целиком и за предыдущие месяцы, начиная с января 2011 года, Вы можете получить, выбрав интересующий диапазон дат из раскрывающегося списка и нажав кнопку "Ввод!".


*Определитесь, кто Вы:
робот инопланетянин человек

Внимание! Время в таблицах - всемирное. Для получения местного времени необходимо прибавить поправку, которая равна 12 ч.

Смотрите также архив погоды в соседних городах и на ближайших метеорологических станциях:

Погода в Козыревске (Камчатский край, Россия) (69 км)
Погода в Усть-Камчатске (Камчатский край, Россия) (118 км)
Погода в Эссо (Камчатский край, Россия) (137 км)
Погода на Мысе Африка (Камчатский край, Россия) (155 км)
Погода в Долиновке (Камчатский край, Россия) (175 км)
Погода в Тигиле (Камчатский край, Россия) (207 км)
Погода на Мысе Озерном (Камчатский край, Россия) (207 км)
Погода в Мильково (Камчатский край, Россия) (233 км)
Погода в Семячике (Камчатский край, Россия) (251 км)
Погода в Усть-Воямполке (Камчатский край, Россия) (263 км)

Пояснения к столбцам:

Ветер - указаны скорость ветра в м/с - средняя за 10 мин, порывы в срок и между сроками (в фигурных скобках) и направление, откуда дует ветер: С - северный, СВ - северо-восточный, В - восточный, ЮВ - юго-восточный, Ю - южный, ЮЗ - юго-западный, З - западный, СЗ - северо-западный.
Видимость - горизонтальная дальность видимости в метрах или километрах. При видимости от 1 до 10 км при отсутствии осадков обычно наблюдается дымка, при ухудшении видимости до 1 км и менее - туман. В сухую погоду видимость может ухудшаться дымом, пылью или мглою.
Явления - указаны атмосферные явления, наблюдавшиеся в срок или в последний час перед сроком; фигурными скобками обозначены явления, наблюдавшиеся между сроками (за 1-3 часа до срока); квадратными скобками обозначены град или гололедные отложения с указанием их диаметра в мм.
Облачность - указаны через наклонную черту общая и нижняя облачность в баллах и высота нижней границы облаков в метрах; квадратными скобками обозначены формы облаков: Ci - перистые, Cs - перисто-слоистые, Cc - перисто-кучевые, Ac - высококучевые, As - высокослоистые, Sc - слоисто-кучевые, Ns - слоисто-дождевые, Cu - кучевые, Cb - кучево-дождевые. Подробнее классификацию облаков см. в Атласе облаков (PDF).
T - Температура воздуха - температура, измеренная на высоте 2 м над землей.
Td - Температура точки росы - температура, при понижении до которой содержащийся в воздухе водяной пар достигнет насыщения.
f - Относительная влажность воздуха - влажноcть воздуха, измеренная на высоте 2 м над землей.
Te - Эффективная температура - температура, которую ощущает одетый по сезону человек в тени. Характеристика душности погоды. При расчете учитывается влияние влажности воздуха и скорости ветра на теплоощущения человека.
Tes - Эффективная температура на солнце - температура, которую ощущает человек, с поправкой на солнечный нагрев. Характеристика знойности погоды. Зависит от высоты солнца над горизонтом, облачности и скорости ветра. Ночью, в пасмурную погоду, а также при ветре 12 м/с и более поправка равна нулю.
P - Атмосферное давление - приведенное к уровню моря атмосферное давление.
Po - Атмосферное давление - измеренное на уровне метеостанции атмосферное давление.
Tmin - Минимальная температура - минимум температуры воздуха на высоте 2 м над землей.
Tmax - Максимальная температура - максимум температуры воздуха на высоте 2 м над землей.
R - Количество осадков - Количество выпавших осадков за период времени, мм. При наведении курсора мыши на число - период времени, за который выпало указанное количество осадков.
R24 - Количество осадков - Количество выпавших осадков за 24 часа, мм.
S - Снежный покров - Высота снежного покрова, см. При наведении курсора мыши на число - состояние снежного покрова и степень покрытия местности в баллах.